[[{"header":{"parameterUnit":"m.s-1","parameterCategory":1,"la1":30.2991,"la2":30.254,"lo1":-89.0895,"lo2":-89.0444,"dy":0.0017,"dx":0.0017,"nx":28,"ny":28,"refTime":"2024-10-02T21:00:00:Z","depth":0,"parameterNumber":2,"parameterNumberName":"U-component_of_WINDS"},"data":[0,0,0,0,0,0,0,0,0,0,0,0,0,0,0,0,0,0,0,0,0,0,0,0,0,0,0,0,0,0,0,0,0,0,0,0,0,0,0,0,0,0,0,0,0,0,0,0,0,0,0,0,0,0,0,0,0,0,-4.682,-4.682,0,-4.68,-4.68,-4.6799,-4.6653,-4.665,-4.6646,-4.6643,-4.6625,-4.6628,-4.6631,0,0,0,0,0,0,0,0,0,0,0,0,0,-4.6734,-4.6737,-4.682,-4.682,-4.682,-4.68,-4.68,-4.6799,-4.6654,-4.665,-4.6645,-4.6641,-4.6624,-4.6628,-4.6631,0,0,0,0,0,0,0,0,0,0,0,0,0,-4.6749,-4.6737,-4.682,-4.6745,-4.6738,-4.68,-4.68,-4.6799,-4.6655,-4.665,-4.6644,-4.6639,-4.6623,-4.6627,-4.6632,-4.6766,0,0,-4.6645,-4.6647,0,0,0,0,0,0,0,0,-4.6748,-4.6752,-4.6756,-4.675,-4.6742,-4.6723,-4.6763,-4.6788,-4.6656,-4.6687,-4.6643,-4.6637,-4.6662,-4.6663,-4.6671,-4.6765,-4.6764,-4.6645,-4.6648,-4.665,-4.6651,0,0,0,0,0,0,0,-4.6747,-4.6752,-4.6812,-4.6756,-4.6748,-4.6712,-4.6708,-4.6767,-4.6705,-4.6683,-4.6673,-4.6672,-4.6658,-4.6668,-4.667,-4.6764,-4.6645,-4.6649,-4.6651,-4.6653,-4.6964,-4.697,0,0,0,0,0,0,-4.6757,-4.6752,-4.6813,-4.6811,-4.6732,-4.6718,-4.6714,-4.6735,-4.6704,-4.6694,-4.6677,-4.6665,-4.6663,-4.6665,-4.6669,-4.6821,-4.665,-4.6654,-4.6656,-4.6959,-4.6965,-4.6972,0,0,0,0,0,0,-4.6755,-4.6763,-4.6814,-4.6779,-4.6783,-4.6725,-4.675,-4.6738,-4.6747,-4.6699,-4.6687,-4.6698,-4.6659,-4.6663,-4.6742,-4.6819,-4.6655,-4.6659,-4.6952,-4.6961,-4.6969,-4.713,0,0,0,0,0,0,-4.6753,-4.6764,-4.6814,-4.6781,-4.6785,-4.6887,-4.6755,-4.6741,-4.6754,-4.6739,-4.6716,-4.6707,-4.6655,-4.6736,-4.6746,-4.6822,-4.6663,-4.6945,-4.6956,-4.6966,-4.7117,-4.7143,-4.7165,0,0,0,0,0,-4.6751,-4.6861,-4.6817,-4.6825,-4.6846,-4.6892,-4.6894,-4.6831,-4.6761,-4.6811,-4.678,-4.6707,-4.681,-4.6746,-4.6756,-4.6834,-4.694,-4.6953,-4.6965,-4.7107,-4.7138,-4.7164,0,0,0,0,0,0,-4.6906,-4.6856,-4.6806,-4.6909,-4.6906,-4.6867,-4.6928,-4.6867,-4.6884,-4.6869,-4.6791,-4.6787,-4.6878,-4.6864,-4.6794,-4.6961,-4.6862,-4.6877,-4.6966,-4.6995,-4.7019,-4.7019,-4.6666,0,0,0,0,0,-4.6952,-4.6993,-4.6947,-4.7042,-4.7043,-4.6987,-4.7004,-4.6955,-4.6949,-4.6947,-4.6922,-4.6919,-4.695,-4.6972,-4.6998,-4.7115,-4.7107,-4.7174,-4.7198,-4.7217,-4.7231,-4.729,-4.7318,-4.7014,-4.7013,-4.7013,0,0,-4.7048,-4.7026,-4.7056,-4.7073,-4.7064,-4.7108,-4.6986,-4.7038,-4.7069,-4.6955,-4.7027,-4.7009,-4.7001,-4.7099,-4.7141,-4.7091,-4.7313,-4.7234,-4.725,-4.7252,-4.7306,-4.7335,-4.736,-4.7022,-4.7021,-4.7019,0,0,-4.7245,-4.7233,-4.7309,-4.7303,-4.7291,-4.7252,-4.7271,-4.7241,-4.7224,-4.7295,-4.721,-4.7247,-4.7303,-4.73,-4.7306,-4.75,-4.7433,-4.7511,-4.7634,-4.7692,-4.7716,-4.7737,-4.7804,-4.7829,-4.7525,-4.7526,-4.7526,0,-4.7366,-4.7427,-4.7357,-4.7413,-4.7422,-4.732,-4.7397,-4.7395,-4.7393,-4.7402,-4.7345,-4.7411,-4.7399,-4.7493,-4.7541,-4.755,-4.7568,-4.7512,-4.7718,-4.7738,-4.7756,-4.782,-4.7845,-4.7535,-4.7534,-4.7533,-4.7532,0,-4.7575,-4.7619,-4.7682,-4.7681,-4.7697,-4.7765,-4.7705,-4.773,-4.7681,-4.7648,-4.7721,-4.7703,-4.7722,-4.7742,-4.7695,-4.783,-4.7798,-4.7732,-4.763,-4.7796,-4.7854,-4.7878,-4.7548,-4.7545,-4.7542,-4.754,0,0,-4.7868,-4.7826,-4.785,-4.7847,-4.7826,-4.7859,-4.7921,-4.7938,-4.7961,-4.7964,-4.8013,-4.8062,-4.7999,-4.8006,-4.7957,-4.8009,-4.8161,-4.7935,-4.7933,-4.7976,-4.8307,-4.8356,-4.8385,-4.8118,-4.8122,-4.8126,-4.8307,0,-4.8055,-4.8156,-4.8094,-4.8206,-4.8244,-4.8147,-4.8201,-4.8194,-4.8166,-4.8195,-4.8164,-4.8199,-4.8114,-4.8117,-4.8164,-4.8133,-4.8226,-4.8119,-4.8162,-4.8165,-4.8165,-4.8416,-4.8468,-4.864,-4.8329,-4.8333,-4.8336,0,-4.8286,-4.8296,-4.841,-4.8379,-4.8393,-4.8442,-4.8452,-4.8482,-4.8472,-4.8448,-4.8455,-4.8394,-4.8452,-4.8354,-4.8433,-4.8361,-4.8376,-4.8363,-4.8368,-4.8368,-4.8259,-4.842,-4.8693,-4.8718,-4.8371,-4.8368,-4.8366,0,-4.8485,-4.8528,-4.86,-4.8601,-4.8568,-4.8605,-4.8593,-4.8577,-4.8591,-4.8601,-4.8609,-4.8626,-4.8636,-4.8651,-4.8596,-4.8529,-4.8682,-4.8579,-4.8662,-4.8664,-4.8697,-4.8695,-4.8974,-4.8711,-4.8711,-4.871,-4.871,0,-4.8699,-4.8772,-4.8689,-4.8734,-4.8813,-4.8742,-4.8822,-4.88,-4.8787,-4.8826,-4.8745,-4.8784,-4.8709,-4.8741,-4.8699,-4.877,-4.8775,-4.8757,-4.8744,-4.8763,-4.8765,-4.8769,-4.8755,-4.8717,-4.8715,-4.8714,-4.8713,0,-4.8934,-4.8882,-4.8954,-4.8916,-4.8908,-4.8968,-4.8935,-4.8975,-4.8941,-4.8992,-4.8999,-4.8946,-4.8978,-4.8925,-4.8953,-4.8924,-4.9022,-4.8992,-4.9025,-4.9015,-4.91,-4.9092,-4.939,-4.9424,-4.9142,-4.9144,-4.9147,0,-4.9073,-4.9126,-4.9093,-4.9112,-4.9104,-4.9137,-4.915,-4.9082,-4.9099,-4.9091,-4.9132,-4.9158,-4.9174,-4.923,-4.9195,-4.9215,-4.9183,-4.9286,-4.9186,-4.9202,-4.9182,-4.9179,-4.9183,-4.9306,-4.931,-4.9313,-4.9315,0,-4.9323,-4.9294,-4.9315,-4.9327,-4.9344,-4.9351,-4.9352,-4.9373,-4.9301,-4.9325,-4.9355,-4.9368,-4.9394,-4.942,-4.9431,-4.9419,-4.9356,-4.9347,-4.9367,-4.9385,-4.94,-4.9391,-4.9078,-4.934,-4.9338,-4.9336,-4.9334,-4.9333,-4.9513,-4.9555,-4.9537,-4.9563,-4.9556,-4.9558,-4.9593,-4.9562,-4.9586,-4.96,-4.956,-4.96,-4.9588,-4.9595,-4.9591,-4.9622,-4.9576,-4.9606,-4.9613,-4.9621,-4.9633,-4.9398,-4.9624,-4.9623,-4.9623,-4.9622,-4.9621,0,-4.9757,-4.974,-4.9764,-4.9767,-4.9787,-4.9724,-4.9721,-4.9742,-4.9778,-4.9772,-4.9789,-4.9824,-4.9848,-4.9814,-4.9833,-4.9864,-4.9835,-4.9871,-4.9867,-4.9865,-4.9674,-4.9653,-4.9894,-4.9894,-4.9894,-4.9894,-4.9894,-4.9894,-4.9886,-4.9953,-4.9922,-4.9984,-4.9967,-5.0004,-5.0008,-5.001,-5.0003,-5.0045,-5.0064,-5.0042,-5.0024,-5.004,-5.006,-5.0049,-5.0059,-5.0105,-5.0084,-4.9906,-4.9879,-4.9853,-4.9834,-5.0108,-5.0109,-5.0272,-5.0274,-5.0275]},{"header":{"parameterUnit":"m.s-1","parameterCategory":1,"la1":30.2991,"la2":30.254,"lo1":-89.0895,"lo2":-89.0444,"dy":0.0017,"dx":0.0017,"nx":28,"ny":28,"refTime":"2024-10-02T21:00:00:Z","depth":0,"parameterNumber":3,"parameterNumberName":"V-component_of_WINDS"},"data":[0,0,0,0,0,0,0,0,0,0,0,0,0,0,0,0,0,0,0,0,0,0,0,0,0,0,0,0,0,0,0,0,0,0,0,0,0,0,0,0,0,0,0,0,0,0,0,0,0,0,0,0,0,0,0,0,0,0,0.4588,0.4586,0,0.4424,0.4422,0.442,0.4342,0.4342,0.4343,0.4343,0.4166,0.4161,0.4156,0,0,0,0,0,0,0,0,0,0,0,0,0,0.4826,0.4822,0.4588,0.4586,0.4584,0.4424,0.4422,0.442,0.4342,0.4342,0.4343,0.4343,0.4167,0.4162,0.4156,0,0,0,0,0,0,0,0,0,0,0,0,0,0.4698,0.4821,0.4588,0.4526,0.4519,0.4425,0.4422,0.4419,0.4342,0.4342,0.4343,0.4343,0.4169,0.4162,0.4155,0.4107,0,0,0.4133,0.413,0,0,0,0,0,0,0,0,0.4705,0.4689,0.4538,0.453,0.4522,0.4404,0.4441,0.4314,0.4342,0.4409,0.4343,0.4343,0.4244,0.4231,0.4199,0.4099,0.4091,0.4132,0.4128,0.4125,0.4123,0,0,0,0,0,0,0,0.4714,0.4696,0.4523,0.4535,0.4526,0.4504,0.4486,0.4416,0.4327,0.4403,0.4397,0.4379,0.424,0.4207,0.4195,0.4089,0.4133,0.4126,0.4122,0.4119,0.3939,0.3939,0,0,0,0,0,0,0.4735,0.4704,0.4528,0.4518,0.4616,0.45,0.4479,0.4442,0.4328,0.4311,0.438,0.4376,0.4219,0.4203,0.4188,0.4124,0.4125,0.4118,0.4114,0.394,0.3939,0.3938,0,0,0,0,0,0,0.474,0.472,0.4535,0.4609,0.4584,0.4495,0.4453,0.4438,0.4405,0.431,0.4293,0.4362,0.4218,0.4198,0.4128,0.4117,0.4115,0.4108,0.394,0.3939,0.3939,0.3996,0,0,0,0,0,0,0.4747,0.4722,0.4705,0.461,0.4581,0.448,0.4453,0.4435,0.4394,0.4388,0.4289,0.4273,0.4217,0.414,0.4121,0.4107,0.4103,0.3941,0.394,0.3939,0.3995,0.3997,0.4,0,0,0,0,0,0.4756,0.4726,0.4705,0.4684,0.4558,0.448,0.4463,0.4401,0.4393,0.4374,0.4313,0.4276,0.4121,0.4133,0.4112,0.4095,0.3941,0.394,0.3939,0.3994,0.3997,0.4,0,0,0,0,0,0,0.4819,0.4712,0.4687,0.4626,0.4563,0.4467,0.4441,0.4407,0.4342,0.434,0.4263,0.4241,0.4178,0.4129,0.4144,0.4042,0.4028,0.4022,0.4076,0.4079,0.4081,0.4094,0.4097,0,0,0,0,0,0.4827,0.4775,0.4683,0.4638,0.4608,0.453,0.4494,0.4452,0.4382,0.4354,0.4288,0.422,0.4155,0.4114,0.405,0.3988,0.3964,0.3965,0.3968,0.397,0.3966,0.3928,0.3928,0.3935,0.3935,0.3935,0,0,0.484,0.4775,0.4747,0.4649,0.4595,0.4541,0.4508,0.4452,0.441,0.4345,0.4276,0.4225,0.4142,0.4076,0.4044,0.4034,0.3959,0.3969,0.3972,0.3966,0.3927,0.3927,0.3926,0.3935,0.3935,0.3935,0,0,0.4837,0.4784,0.4741,0.4688,0.4608,0.4557,0.4546,0.4455,0.442,0.435,0.4299,0.4247,0.4138,0.4082,0.4039,0.4015,0.3978,0.3996,0.4008,0.3972,0.3972,0.3971,0.3961,0.3959,0.3992,0.3992,0.3992,0,0.4863,0.4783,0.4721,0.4669,0.4626,0.4568,0.4522,0.4472,0.4374,0.4345,0.4336,0.4198,0.4139,0.4058,0.4053,0.402,0.4004,0.4006,0.3978,0.3976,0.3974,0.3964,0.3961,0.3995,0.3995,0.3994,0.3994,0,0.4819,0.4763,0.4737,0.4648,0.4602,0.4553,0.4481,0.4442,0.4404,0.4353,0.4281,0.4208,0.4128,0.4105,0.4067,0.4018,0.4015,0.3993,0.3976,0.3977,0.3966,0.3962,0.3999,0.3998,0.3997,0.3996,0,0,0.485,0.4729,0.472,0.4678,0.4586,0.454,0.4487,0.4412,0.4379,0.4313,0.4265,0.4175,0.4154,0.4105,0.406,0.4028,0.4013,0.4009,0.4006,0.4012,0.3954,0.3971,0.3967,0.3989,0.3988,0.3987,0.396,0,0.4834,0.474,0.4684,0.4611,0.4559,0.4502,0.4456,0.4393,0.4343,0.4289,0.4232,0.4169,0.4147,0.4117,0.4084,0.4022,0.4,0.4023,0.3941,0.3938,0.3963,0.3962,0.3979,0.3958,0.3956,0.3955,0.3954,0,0.4803,0.4742,0.4666,0.4579,0.4555,0.4515,0.444,0.439,0.4316,0.4282,0.4229,0.4183,0.4122,0.4112,0.4025,0.4042,0.4005,0.3969,0.3967,0.3956,0.3946,0.395,0.395,0.3946,0.3947,0.3948,0.3948,0,0.4833,0.4731,0.4672,0.4638,0.4536,0.4509,0.4465,0.4392,0.435,0.4284,0.4255,0.4182,0.4142,0.4085,0.4019,0.4018,0.3939,0.3923,0.3907,0.3908,0.3892,0.3893,0.3885,0.3869,0.387,0.387,0.387,0,0.482,0.4776,0.4685,0.4648,0.4596,0.453,0.4478,0.4429,0.4364,0.4315,0.4261,0.4215,0.4132,0.4076,0.4024,0.3959,0.3941,0.391,0.3897,0.3915,0.3919,0.3888,0.3888,0.3869,0.3869,0.3869,0.3869,0,0.4845,0.4782,0.4714,0.4624,0.46,0.4566,0.4487,0.4448,0.4396,0.4334,0.4316,0.4233,0.4164,0.4094,0.3999,0.3964,0.39,0.3882,0.3926,0.3919,0.3906,0.3908,0.3876,0.3868,0.386,0.386,0.3861,0,0.4841,0.4805,0.4712,0.4677,0.4635,0.4579,0.4537,0.4469,0.4427,0.4341,0.4311,0.4239,0.4177,0.4068,0.3997,0.3924,0.3903,0.3898,0.3892,0.3911,0.3902,0.3905,0.39,0.39,0.39,0.39,0.3901,0,0.484,0.4811,0.4754,0.4686,0.4638,0.458,0.452,0.4493,0.4414,0.4368,0.4299,0.4251,0.4156,0.4083,0.4002,0.3952,0.3912,0.3904,0.3895,0.3913,0.3939,0.3924,0.3932,0.3904,0.3904,0.3904,0.3903,0.3903,0.4849,0.4815,0.4744,0.4682,0.4631,0.4576,0.4535,0.448,0.4421,0.4341,0.4304,0.4233,0.4158,0.4045,0.3997,0.3938,0.3927,0.3916,0.3913,0.3911,0.3915,0.395,0.3923,0.3923,0.3923,0.3923,0.3922,0,0.4844,0.4797,0.4741,0.466,0.4611,0.4581,0.4513,0.4473,0.4412,0.4348,0.4289,0.4208,0.4137,0.4062,0.3986,0.3953,0.3933,0.3935,0.3936,0.3925,0.3929,0.3944,0.3953,0.3953,0.3953,0.3953,0.3953,0.3953,0.4836,0.4777,0.474,0.4654,0.4605,0.4538,0.4502,0.445,0.4398,0.4311,0.4254,0.4206,0.4136,0.4055,0.3988,0.3967,0.3941,0.3949,0.3923,0.3928,0.3925,0.3923,0.3936,0.3944,0.3944,0.3923,0.3923,0.3923]}]]